{"data":{"norad_id":68617,"intl_designator":"2026-073R","name":"STARLINK-37186","alt_names":[],"object_type":"PAYLOAD","status":"ACTIVE","operator":null,"country":"US","launch_date":"2026-04-07","launch_site_code":"AFWTR","launch_vehicle":null,"mission":null,"orbit_class":"UNKNOWN","rcs_meters":null,"size_class":null,"mass_kg":null,"dimensions":null,"purposes":["comms"],"wikipedia_slug":null,"has_3d_model":false,"image_url":null,"decayed_at":null,"tle_current":{"epoch":"2026-05-25T04:00:03.998880Z","epoch_age_seconds":56723,"freshness":"FRESH","line1":"1 68617U 26073R   26145.16671295 -.00016886  00000+0 -30940-3 0  9990","line2":"2 68617  97.2855 344.6816 0001635  99.2664 266.1841 15.49194738  6015","mean_motion":15.49194738,"eccentricity":0.0001635,"inclination_deg":97.2855,"raan_deg":344.6816,"arg_perigee_deg":99.2664,"mean_anomaly_deg":266.1841,"bstar":-0.0003094,"rev_number":601,"period_min":92.951516338032,"perigee_km":417.96913920969,"apogee_km":420.19182932704,"semimajor_km":6797.2174842684,"source":"CELESTRAK","updated_at":"2026-05-25T13:38:21.969710Z"}}}